Cairns, Australia

5:51 PM AEST on July 25, 2017 (GMT +1000)
Cairns International

Weather History for YBCS - November, 2011

Change the Weather History Date:

Thursday, November 10, 2011

  Actual Average Record
Temperature  
Mean Temperature 80 °F -  
Max Temperature 87 °F 87 °F 91 °F (2007)
Min Temperature 73 °F 73 °F 68 °F (2012)
Cooling Degree Days 15    
Growing Degree Days 30 (Base 50)    
Moisture  
Dew Point 71 °F    
Average Humidity 72    
Maximum Humidity 94    
Minimum Humidity 44    
Precipitation  
Precipitation 0.00 in 0.17 in - ()
Sea Level Pressure  
Sea Level Pressure 29.93 in    
Wind  
Wind Speed 8 mph ()    
Max Wind Speed 16 mph    
Max Gust Speed -    
Visibility 7.1 miles    
Events Rain    
Averages and records for this station are not official NWS values.
T = Trace of Precipitation, MM = Missing Value Source: Averaged Metar Reports

Daily Weather History Graph

Daily Weather History Graph

Search for Another Location

Airport or City:

Trip Planner

Search our weather history database for the weather conditions in past years. The results will help you decide how hot, cold, wet, or windy it might be!

Date:

Astronomy

Nov. 10, 2011 Rise Set
Actual Time 5:35 AM AEST 6:25 PM AEST
Civil Twilight 5:13 AM AEST 6:48 PM AEST
Nautical Twilight 4:46 AM AEST 7:15 PM AEST
Astronomical Twilight 4:18 AM AEST 7:43 PM AEST
Moon 5:58 PM AEST (11/10) 4:49 AM AEST (11/10)
Length of Visible Light 13h 35m
Length of Day
12h 49m
Waxing Gibbous, 99% of the Moon is Illuminated
Nov 10
Waxing Gibbous
Nov 11
Full
Nov 19
Last Quarter
Nov 25
New
Dec 2
First Quarter

Hourly Weather History & Observations

Time (AEST) Temp. Heat Index Dew Point Humidity Pressure Visibility Wind Dir Wind Speed Gust Speed Precip Events Conditions
12:00 AM 77 °F - 69 °F 68% 29.94 in 16 mi South 6.9 mph - -   Partly Cloudy
12:00 AM 77.0 °F - 68.0 °F 74% 29.92 in 6.2 mi South 6.9 mph - N/A   Scattered Clouds
12:30 AM 77.0 °F - 68.0 °F 74% 29.92 in 6.2 mi South 9.2 mph - N/A   Mostly Cloudy
1:00 AM 77 °F - 69 °F 70% 29.92 in - South 8.1 mph - -  
1:00 AM 77.0 °F - 69.8 °F 78% 29.92 in 6.2 mi South 8.1 mph - N/A   Scattered Clouds
1:30 AM 77.0 °F - 69.8 °F 78% 29.89 in 6.2 mi SSE 10.4 mph - N/A   Scattered Clouds
2:00 AM 77.0 °F - 69.8 °F 78% 29.89 in 6.2 mi South 8.1 mph - N/A   Mostly Cloudy
2:30 AM 77.0 °F - 69.8 °F 78% 29.89 in 6.2 mi South 8.1 mph - N/A   Scattered Clouds
3:00 AM 76 °F - 69 °F 73% 29.90 in 9 mi SSE 6.9 mph - - Rain Light Rain Showers
3:00 AM 77.0 °F - 69.8 °F 78% 29.89 in 6.2 mi SSE 6.9 mph - N/A Rain Light Rain Showers
3:30 AM 77.0 °F - 69.8 °F 78% 29.89 in 6.2 mi South 9.2 mph - N/A   Mostly Cloudy
4:00 AM 76 °F - 70 °F 75% 29.91 in - South 9.2 mph - -  
4:00 AM 75.2 °F - 69.8 °F 83% 29.89 in 6.2 mi South 9.2 mph - N/A   Scattered Clouds
4:30 AM 77.0 °F - 69.8 °F 78% 29.89 in 6.2 mi South 9.2 mph - N/A   Scattered Clouds
5:00 AM 77.0 °F - 69.8 °F 78% 29.92 in 6.2 mi South 9.2 mph - N/A   Scattered Clouds
5:30 AM 75.2 °F - 69.8 °F 83% 29.92 in 5.6 mi SE 8.1 mph - N/A Rain Light Rain Showers
5:37 AM 73.4 °F - 71.6 °F 94% 29.92 in 3.7 mi ESE 9.2 mph - N/A Rain Light Rain Showers
6:00 AM 74 °F - 72 °F 90% 29.94 in 9 mi South 8.1 mph - - Rain Light Rain Showers
6:00 AM 73.4 °F - 71.6 °F 94% 29.95 in 3.7 mi South 8.1 mph - N/A Rain Light Rain Showers
6:19 AM 75.2 °F - 71.6 °F 89% 29.95 in 6.2 mi South 4.6 mph - N/A Rain Light Rain Showers
6:30 AM 75.2 °F - 71.6 °F 89% 29.95 in 6.2 mi South 9.2 mph - N/A Rain Light Rain Showers
6:49 AM 75.2 °F - 73.4 °F 94% 29.95 in 6.2 mi South 4.6 mph - N/A Rain Light Rain Showers
7:00 AM 76 °F - 73 °F 87% 29.97 in - Calm Calm - -  
7:00 AM 77.0 °F - 73.4 °F 89% 29.95 in 6.2 mi Calm Calm - N/A   Mostly Cloudy
7:30 AM 77.0 °F - 71.6 °F 83% 29.95 in 6.2 mi South 5.8 mph - N/A   Scattered Clouds
8:00 AM 78.8 °F - 71.6 °F 78% 29.98 in 6.2 mi South 8.1 mph - N/A   Scattered Clouds
8:30 AM 80.6 °F 85.4 °F 73.4 °F 79% 29.98 in 6.2 mi South 8.1 mph - N/A   Partly Cloudy
9:00 AM 83 °F - 74 °F 66% 29.99 in 16 mi SSE 9.2 mph - -   Partly Cloudy
9:00 AM 82.4 °F 88.2 °F 73.4 °F 74% 29.98 in 6.2 mi SSE 9.2 mph - N/A   Partly Cloudy
9:30 AM 84.2 °F 89.6 °F 71.6 °F 66% 29.98 in 6.2 mi SSE 9.2 mph - N/A   Partly Cloudy
10:00 AM 84 °F - 72 °F 59% 29.99 in - SE 6.9 mph - -  
10:00 AM 84.2 °F 89.6 °F 71.6 °F 66% 29.98 in 6.2 mi SE 6.9 mph - N/A   Partly Cloudy
10:30 AM 84.2 °F 89.6 °F 71.6 °F 66% 29.98 in 6.2 mi ESE 11.5 mph - N/A   Partly Cloudy
11:00 AM 86.0 °F 90.4 °F 69.8 °F 58% 29.95 in 6.2 mi ENE 9.2 mph - N/A   Partly Cloudy
11:30 AM 87.8 °F 93.8 °F 71.6 °F 58% 29.95 in 6.2 mi ESE 11.5 mph - N/A   Partly Cloudy
12:00 PM 87 °F - 72 °F 52% 29.95 in 19 mi East 12.7 mph - -   Partly Cloudy
12:00 PM 87.8 °F 93.8 °F 71.6 °F 58% 29.95 in 6.2 mi East 12.7 mph - N/A   Partly Cloudy
12:30 PM 87.8 °F 93.8 °F 71.6 °F 58% 29.92 in 6.2 mi East 13.8 mph - N/A   Partly Cloudy
1:00 PM 87 °F - 68 °F 44% 29.93 in - ESE 13.8 mph - -  
1:00 PM 86.0 °F 89.4 °F 68.0 °F 55% 29.92 in 6.2 mi ESE 13.8 mph - N/A   Partly Cloudy
1:30 PM 87.8 °F 92.6 °F 69.8 °F 55% 29.89 in 6.2 mi ESE 13.8 mph - N/A   Partly Cloudy
2:00 PM 87.8 °F 92.6 °F 69.8 °F 55% 29.89 in 6.2 mi ESE 12.7 mph - N/A   Partly Cloudy
2:30 PM 86.0 °F 91.8 °F 71.6 °F 62% 29.89 in 6.2 mi East 16.1 mph - N/A   Partly Cloudy
3:00 PM 87 °F - 72 °F 53% 29.89 in 19 mi East 15.0 mph - -   Partly Cloudy
3:00 PM 86.0 °F 91.8 °F 71.6 °F 62% 29.89 in 6.2 mi East 15.0 mph - N/A   Partly Cloudy
3:30 PM 86.0 °F 91.8 °F 71.6 °F 62% 29.89 in 6.2 mi ESE 15.0 mph - N/A   Partly Cloudy
4:00 PM 85 °F - 70 °F 52% 29.89 in - ESE 12.7 mph - -  
4:00 PM 86.0 °F 90.4 °F 69.8 °F 58% 29.89 in 6.2 mi ESE 12.7 mph - N/A   Partly Cloudy
4:30 PM 84.2 °F 88.4 °F 69.8 °F 62% 29.89 in 6.2 mi East 16.1 mph - N/A   Partly Cloudy
5:00 PM 84.2 °F 88.4 °F 69.8 °F 62% 29.89 in 6.2 mi ESE 12.7 mph - N/A   Partly Cloudy
5:30 PM 82.4 °F 86.3 °F 69.8 °F 66% 29.89 in 6.2 mi SE 10.4 mph - N/A   Scattered Clouds
6:00 PM 81 °F - 70 °F 63% 29.92 in - SE 11.5 mph - -  
6:00 PM 80.6 °F 83.9 °F 69.8 °F 70% 29.92 in 6.2 mi SE 11.5 mph - N/A   Scattered Clouds
6:30 PM 80.6 °F 84.6 °F 71.6 °F 74% 29.92 in 6.2 mi SE 13.8 mph - N/A   Scattered Clouds
7:00 PM 80 °F - 70 °F 65% 29.94 in - SE 11.5 mph - -  
7:00 PM 80.6 °F 83.9 °F 69.8 °F 70% 29.92 in 6.2 mi SE 11.5 mph - N/A   Scattered Clouds
7:30 PM 78.8 °F - 71.6 °F 78% 29.92 in 6.2 mi South 8.1 mph - N/A   Scattered Clouds
8:00 PM 78.8 °F - 71.6 °F 78% 29.95 in 6.2 mi SSE 9.2 mph - N/A   Scattered Clouds
8:30 PM 78.8 °F - 71.6 °F 78% 29.95 in 6.2 mi SSE 9.2 mph - N/A   Scattered Clouds
9:00 PM 78 °F - 72 °F 77% 29.96 in 12 mi SSE 6.9 mph - -   Partly Cloudy
9:00 PM 78.8 °F - 71.6 °F 78% 29.95 in 6.2 mi SSE 6.9 mph - N/A   Scattered Clouds
9:30 PM 78.8 °F - 71.6 °F 78% 29.95 in 6.2 mi SSE 8.1 mph - N/A   Scattered Clouds
10:00 PM 77 °F - 72 °F 82% 29.98 in - South 6.9 mph - -  
10:00 PM 77.0 °F - 73.4 °F 89% 29.98 in 6.2 mi South 6.9 mph - N/A   Partly Cloudy
10:30 PM 77.0 °F - 73.4 °F 89% 29.98 in 6.2 mi SSE 8.1 mph - N/A   Partly Cloudy
11:00 PM 77.0 °F - 71.6 °F 83% 29.98 in 6.2 mi South 8.1 mph - N/A   Partly Cloudy
11:30 PM 77.0 °F - 71.6 °F 83% 29.95 in 6.2 mi South 6.9 mph - N/A   Partly Cloudy